owner,sensor,date,latitude,longitude,air_temperature,qcFlag 
WAVCIS,ioos:station:WAVCIS:CSI15:1,2012-01-01T00:00:00Z,28.8332,-90.8320,21.77,11111222 
WAVCIS,ioos:station:WAVCIS:CSI15:1,2012-01-01T01:00:00Z,28.8332,-90.8320,21.73,11111222 
WAVCIS,ioos:station:WAVCIS:CSI15:1,2012-01-01T02:00:00Z,28.8332,-90.8320,21.28,11111222 
WAVCIS,ioos:station:WAVCIS:CSI15:1,2012-01-01T03:00:00Z,28.8332,-90.8320,21.4,11111222 
WAVCIS,ioos:station:WAVCIS:CSI15:1,2012-01-01T04:00:00Z,28.8332,-90.8320,21.11,11111222 
WAVCIS,ioos:station:WAVCIS:CSI15:1,2012-01-01T05:00:00Z,28.8332,-90.8320,21.27,11111222 
WAVCIS,ioos:station:WAVCIS:CSI15:1,2012-01-01T06:00:00Z,28.8332,-90.8320,20.89,11111222 
WAVCIS,ioos:station:WAVCIS:CSI15:1,2012-01-01T07:00:00Z,28.8332,-90.8320,21.05,11111222 
WAVCIS,ioos:station:WAVCIS:CSI15:1,2012-01-01T08:00:00Z,28.8332,-90.8320,20.81,11111222 
WAVCIS,ioos:station:WAVCIS:CSI15:1,2012-01-01T09:00:00Z,28.8332,-90.8320,21.26,11111222 
WAVCIS,ioos:station:WAVCIS:CSI15:1,2012-01-01T10:00:00Z,28.8332,-90.8320,21.39,11111222 
WAVCIS,ioos:station:WAVCIS:CSI15:1,2012-01-01T11:00:00Z,28.8332,-90.8320,21.08,11111222 
WAVCIS,ioos:station:WAVCIS:CSI15:1,2012-01-01T12:00:00Z,28.8332,-90.8320,21.35,11111222 
WAVCIS,ioos:station:WAVCIS:CSI15:1,2012-01-01T13:00:00Z,28.8332,-90.8320,21.81,11111222 
WAVCIS,ioos:station:WAVCIS:CSI15:1,2012-01-01T14:00:00Z,28.8332,-90.8320,23.33,11111222 
WAVCIS,ioos:station:WAVCIS:CSI15:1,2012-01-01T15:00:00Z,28.8332,-90.8320,22.46,11111222 
WAVCIS,ioos:station:WAVCIS:CSI15:1,2012-01-01T16:00:00Z,28.8332,-90.8320,26.13,11111222 
WAVCIS,ioos:station:WAVCIS:CSI15:1,2012-01-01T17:00:00Z,28.8332,-90.8320,31.75,11111222 
WAVCIS,ioos:station:WAVCIS:CSI15:1,2012-01-01T18:00:00Z,28.8332,-90.8320,22.02,11111222 
WAVCIS,ioos:station:WAVCIS:CSI15:1,2012-01-01T19:00:00Z,28.8332,-90.8320,21.04,11111222 
WAVCIS,ioos:station:WAVCIS:CSI15:1,2012-01-01T20:00:00Z,28.8332,-90.8320,22.65,11111222 
WAVCIS,ioos:station:WAVCIS:CSI15:1,2012-01-01T21:00:00Z,28.8332,-90.8320,23.89,11111222 
WAVCIS,ioos:station:WAVCIS:CSI15:1,2012-01-01T22:00:00Z,28.8332,-90.8320,20.63,11111222 
WAVCIS,ioos:station:WAVCIS:CSI15:1,2012-01-01T23:00:00Z,28.8332,-90.8320,20.21,11111222 
WAVCIS,ioos:station:WAVCIS:CSI15:1,2012-01-02T00:00:00Z,28.8332,-90.8320,20.02,11111222 
WAVCIS,ioos:station:WAVCIS:CSI15:1,2012-01-02T01:00:00Z,28.8332,-90.8320,19.67,11111222 
WAVCIS,ioos:station:WAVCIS:CSI15:1,2012-01-02T02:00:00Z,28.8332,-90.8320,18.65,11111222 
WAVCIS,ioos:station:WAVCIS:CSI15:1,2012-01-02T03:00:00Z,28.8332,-90.8320,19.06,11111222 
WAVCIS,ioos:station:WAVCIS:CSI15:1,2012-01-02T04:00:00Z,28.8332,-90.8320,17.14,11111222 
WAVCIS,ioos:station:WAVCIS:CSI15:1,2012-01-02T05:00:00Z,28.8332,-90.8320,16.06,11111222 
WAVCIS,ioos:station:WAVCIS:CSI15:1,2012-01-02T06:00:00Z,28.8332,-90.8320,15.85,11111222 
WAVCIS,ioos:station:WAVCIS:CSI15:1,2012-01-02T07:00:00Z,28.8332,-90.8320,15.9,11111222 
WAVCIS,ioos:station:WAVCIS:CSI15:1,2012-01-02T08:00:00Z,28.8332,-90.8320,14.38,11111222 
WAVCIS,ioos:station:WAVCIS:CSI15:1,2012-01-02T09:00:00Z,28.8332,-90.8320,15.18,11111222 
WAVCIS,ioos:station:WAVCIS:CSI15:1,2012-01-02T10:00:00Z,28.8332,-90.8320,14.28,11111222 
WAVCIS,ioos:station:WAVCIS:CSI15:1,2012-01-02T11:00:00Z,28.8332,-90.8320,16.99,11111222 
WAVCIS,ioos:station:WAVCIS:CSI15:1,2012-01-02T12:00:00Z,28.8332,-90.8320,13.4,11111222 
WAVCIS,ioos:station:WAVCIS:CSI15:1,2012-01-02T13:00:00Z,28.8332,-90.8320,12.94,11111222 
WAVCIS,ioos:station:WAVCIS:CSI15:1,2012-01-02T14:00:00Z,28.8332,-90.8320,16.83,11111222 
WAVCIS,ioos:station:WAVCIS:CSI15:1,2012-01-02T15:00:00Z,28.8332,-90.8320,15.44,11111222 
WAVCIS,ioos:station:WAVCIS:CSI15:1,2012-01-02T16:00:00Z,28.8332,-90.8320,22.56,11111222 
WAVCIS,ioos:station:WAVCIS:CSI15:1,2012-01-02T17:00:00Z,28.8332,-90.8320,22.61,11111222 
WAVCIS,ioos:station:WAVCIS:CSI15:1,2012-01-02T18:00:00Z,28.8332,-90.8320,21.46,11111222 
WAVCIS,ioos:station:WAVCIS:CSI15:1,2012-01-02T19:00:00Z,28.8332,-90.8320,23.27,11111222 
WAVCIS,ioos:station:WAVCIS:CSI15:1,2012-01-02T20:00:00Z,28.8332,-90.8320,13.85,11111222 
WAVCIS,ioos:station:WAVCIS:CSI15:1,2012-01-02T21:00:00Z,28.8332,-90.8320,23.56,11111222 
WAVCIS,ioos:station:WAVCIS:CSI15:1,2012-01-02T22:00:00Z,28.8332,-90.8320,25.7,11111222 
WAVCIS,ioos:station:WAVCIS:CSI15:1,2012-01-02T23:00:00Z,28.8332,-90.8320,22.91,11111222 
WAVCIS,ioos:station:WAVCIS:CSI15:1,2012-01-03T00:00:00Z,28.8332,-90.8320,24.26,11111222 
WAVCIS,ioos:station:WAVCIS:CSI15:1,2012-01-03T01:00:00Z,28.8332,-90.8320,25.32,11111222 
WAVCIS,ioos:station:WAVCIS:CSI15:1,2012-01-03T02:00:00Z,28.8332,-90.8320,27.03,11111222 
WAVCIS,ioos:station:WAVCIS:CSI15:1,2012-01-03T03:00:00Z,28.8332,-90.8320,20.29,11111222 
WAVCIS,ioos:station:WAVCIS:CSI15:1,2012-01-03T04:00:00Z,28.8332,-90.8320,25.41,11111222 
WAVCIS,ioos:station:WAVCIS:CSI15:1,2012-01-03T05:00:00Z,28.8332,-90.8320,25.79,11111222 
WAVCIS,ioos:station:WAVCIS:CSI15:1,2012-01-03T06:00:00Z,28.8332,-90.8320,22.84,11111222 
WAVCIS,ioos:station:WAVCIS:CSI15:1,2012-01-03T07:00:00Z,28.8332,-90.8320,21.88,11111222 
WAVCIS,ioos:station:WAVCIS:CSI15:1,2012-01-03T08:00:00Z,28.8332,-90.8320,22.31,11111222 
WAVCIS,ioos:station:WAVCIS:CSI15:1,2012-01-03T09:00:00Z,28.8332,-90.8320,9.52,11111222 
WAVCIS,ioos:station:WAVCIS:CSI15:1,2012-01-03T10:00:00Z,28.8332,-90.8320,9.09,11111222 
WAVCIS,ioos:station:WAVCIS:CSI15:1,2012-01-03T11:00:00Z,28.8332,-90.8320,8.52,11111222 
WAVCIS,ioos:station:WAVCIS:CSI15:1,2012-01-03T12:00:00Z,28.8332,-90.8320,8.0,11111222 
WAVCIS,ioos:station:WAVCIS:CSI15:1,2012-01-03T13:00:00Z,28.8332,-90.8320,7.7,11111222 
WAVCIS,ioos:station:WAVCIS:CSI15:1,2012-01-03T14:00:00Z,28.8332,-90.8320,7.5,11111222 
WAVCIS,ioos:station:WAVCIS:CSI15:1,2012-01-03T15:00:00Z,28.8332,-90.8320,7.25,11111222 
WAVCIS,ioos:station:WAVCIS:CSI15:1,2012-01-03T16:00:00Z,28.8332,-90.8320,7.15,11111222 
WAVCIS,ioos:station:WAVCIS:CSI15:1,2012-01-03T17:00:00Z,28.8332,-90.8320,7.21,11111222 
WAVCIS,ioos:station:WAVCIS:CSI15:1,2012-01-03T18:00:00Z,28.8332,-90.8320,7.29,11111222 
WAVCIS,ioos:station:WAVCIS:CSI15:1,2012-01-03T19:00:00Z,28.8332,-90.8320,7.6,11111222 
WAVCIS,ioos:station:WAVCIS:CSI15:1,2012-01-03T20:00:00Z,28.8332,-90.8320,8.03,11111222 
WAVCIS,ioos:station:WAVCIS:CSI15:1,2012-01-03T21:00:00Z,28.8332,-90.8320,8.6,11111222 
WAVCIS,ioos:station:WAVCIS:CSI15:1,2012-01-03T22:00:00Z,28.8332,-90.8320,9.42,11111222 
WAVCIS,ioos:station:WAVCIS:CSI15:1,2012-01-03T23:00:00Z,28.8332,-90.8320,11.86,11111222 
WAVCIS,ioos:station:WAVCIS:CSI15:1,2012-01-04T00:00:00Z,28.8332,-90.8320,12.13,11111222 
WAVCIS,ioos:station:WAVCIS:CSI15:1,2012-01-04T01:00:00Z,28.8332,-90.8320,9.66,11111222 
WAVCIS,ioos:station:WAVCIS:CSI15:1,2012-01-04T02:00:00Z,28.8332,-90.8320,10.0,11111222 
WAVCIS,ioos:station:WAVCIS:CSI15:1,2012-01-04T03:00:00Z,28.8332,-90.8320,9.91,11111222 
WAVCIS,ioos:station:WAVCIS:CSI15:1,2012-01-04T04:00:00Z,28.8332,-90.8320,10.35,11111222 
WAVCIS,ioos:station:WAVCIS:CSI15:1,2012-01-04T05:00:00Z,28.8332,-90.8320,10.49,11111222 
WAVCIS,ioos:station:WAVCIS:CSI15:1,2012-01-04T06:00:00Z,28.8332,-90.8320,11.17,11111222 
WAVCIS,ioos:station:WAVCIS:CSI15:1,2012-01-04T07:00:00Z,28.8332,-90.8320,11.4,11111222 
WAVCIS,ioos:station:WAVCIS:CSI15:1,2012-01-04T08:00:00Z,28.8332,-90.8320,11.9,11111222 
WAVCIS,ioos:station:WAVCIS:CSI15:1,2012-01-04T09:00:00Z,28.8332,-90.8320,12.24,11111222 
WAVCIS,ioos:station:WAVCIS:CSI15:1,2012-01-04T10:00:00Z,28.8332,-90.8320,12.69,11111222 
WAVCIS,ioos:station:WAVCIS:CSI15:1,2012-01-04T11:00:00Z,28.8332,-90.8320,13.1,11111222 
WAVCIS,ioos:station:WAVCIS:CSI15:1,2012-01-04T12:00:00Z,28.8332,-90.8320,13.69,11111222 
WAVCIS,ioos:station:WAVCIS:CSI15:1,2012-01-04T13:00:00Z,28.8332,-90.8320,14.11,11111222 
WAVCIS,ioos:station:WAVCIS:CSI15:1,2012-01-04T14:00:00Z,28.8332,-90.8320,14.72,11111222 
WAVCIS,ioos:station:WAVCIS:CSI15:1,2012-01-04T15:00:00Z,28.8332,-90.8320,15.19,11111222 
WAVCIS,ioos:station:WAVCIS:CSI15:1,2012-01-04T16:00:00Z,28.8332,-90.8320,15.5,11111222 
WAVCIS,ioos:station:WAVCIS:CSI15:1,2012-01-04T17:00:00Z,28.8332,-90.8320,16.25,11111222 
WAVCIS,ioos:station:WAVCIS:CSI15:1,2012-01-04T18:00:00Z,28.8332,-90.8320,16.67,11111222 
WAVCIS,ioos:station:WAVCIS:CSI15:1,2012-01-04T19:00:00Z,28.8332,-90.8320,16.35,11111222 
WAVCIS,ioos:station:WAVCIS:CSI15:1,2012-01-04T20:00:00Z,28.8332,-90.8320,16.59,11111222 
WAVCIS,ioos:station:WAVCIS:CSI15:1,2012-01-04T21:00:00Z,28.8332,-90.8320,16.99,11111222 
WAVCIS,ioos:station:WAVCIS:CSI15:1,2012-01-04T22:00:00Z,28.8332,-90.8320,17.3,11111222 
WAVCIS,ioos:station:WAVCIS:CSI15:1,2012-01-04T23:00:00Z,28.8332,-90.8320,17.27,11111222 
WAVCIS,ioos:station:WAVCIS:CSI15:1,2012-01-05T00:00:00Z,28.8332,-90.8320,17.43,11111222 
WAVCIS,ioos:station:WAVCIS:CSI15:1,2012-01-05T01:00:00Z,28.8332,-90.8320,17.57,11111222 
WAVCIS,ioos:station:WAVCIS:CSI15:1,2012-01-05T02:00:00Z,28.8332,-90.8320,17.82,11111222 
WAVCIS,ioos:station:WAVCIS:CSI15:1,2012-01-05T03:00:00Z,28.8332,-90.8320,17.93,11111222 
WAVCIS,ioos:station:WAVCIS:CSI15:1,2012-01-05T04:00:00Z,28.8332,-90.8320,18.11,11111222 
WAVCIS,ioos:station:WAVCIS:CSI15:1,2012-01-05T05:00:00Z,28.8332,-90.8320,18.2,11111222 
WAVCIS,ioos:station:WAVCIS:CSI15:1,2012-01-05T06:00:00Z,28.8332,-90.8320,18.27,11111222 
WAVCIS,ioos:station:WAVCIS:CSI15:1,2012-01-05T07:00:00Z,28.8332,-90.8320,18.36,11111222 
WAVCIS,ioos:station:WAVCIS:CSI15:1,2012-01-05T08:00:00Z,28.8332,-90.8320,18.47,11111222 
WAVCIS,ioos:station:WAVCIS:CSI15:1,2012-01-05T09:00:00Z,28.8332,-90.8320,18.42,11111222 
WAVCIS,ioos:station:WAVCIS:CSI15:1,2012-01-05T10:00:00Z,28.8332,-90.8320,18.53,11111222 
WAVCIS,ioos:station:WAVCIS:CSI15:1,2012-01-05T11:00:00Z,28.8332,-90.8320,18.5,11111222 
WAVCIS,ioos:station:WAVCIS:CSI15:1,2012-01-05T12:00:00Z,28.8332,-90.8320,18.49,11111222 
WAVCIS,ioos:station:WAVCIS:CSI15:1,2012-01-05T13:00:00Z,28.8332,-90.8320,18.41,11111222 
WAVCIS,ioos:station:WAVCIS:CSI15:1,2012-01-05T14:00:00Z,28.8332,-90.8320,18.77,11111222 
WAVCIS,ioos:station:WAVCIS:CSI15:1,2012-01-05T15:00:00Z,28.8332,-90.8320,18.6,11111222 
WAVCIS,ioos:station:WAVCIS:CSI15:1,2012-01-05T16:00:00Z,28.8332,-90.8320,18.64,11111222 
WAVCIS,ioos:station:WAVCIS:CSI15:1,2012-01-05T17:00:00Z,28.8332,-90.8320,18.95,11111222 
WAVCIS,ioos:station:WAVCIS:CSI15:1,2012-01-05T18:00:00Z,28.8332,-90.8320,18.99,11111222 
WAVCIS,ioos:station:WAVCIS:CSI15:1,2012-01-05T19:00:00Z,28.8332,-90.8320,18.63,11111222 
WAVCIS,ioos:station:WAVCIS:CSI15:1,2012-01-05T20:00:00Z,28.8332,-90.8320,21.6,11111222 
WAVCIS,ioos:station:WAVCIS:CSI15:1,2012-01-05T21:00:00Z,28.8332,-90.8320,18.42,11111222 
WAVCIS,ioos:station:WAVCIS:CSI15:1,2012-01-05T22:00:00Z,28.8332,-90.8320,19.56,11111222 
WAVCIS,ioos:station:WAVCIS:CSI15:1,2012-01-05T23:00:00Z,28.8332,-90.8320,18.77,11111222 
WAVCIS,ioos:station:WAVCIS:CSI15:1,2012-01-06T00:00:00Z,28.8332,-90.8320,18.16,11111222 
WAVCIS,ioos:station:WAVCIS:CSI15:1,2012-01-06T01:00:00Z,28.8332,-90.8320,18.44,11111222 
WAVCIS,ioos:station:WAVCIS:CSI15:1,2012-01-06T02:00:00Z,28.8332,-90.8320,18.17,11111222 
WAVCIS,ioos:station:WAVCIS:CSI15:1,2012-01-06T03:00:00Z,28.8332,-90.8320,18.28,11111222 
WAVCIS,ioos:station:WAVCIS:CSI15:1,2012-01-06T04:00:00Z,28.8332,-90.8320,18.67,11111222 
WAVCIS,ioos:station:WAVCIS:CSI15:1,2012-01-06T05:00:00Z,28.8332,-90.8320,18.73,11111222 
WAVCIS,ioos:station:WAVCIS:CSI15:1,2012-01-06T06:00:00Z,28.8332,-90.8320,18.89,11111222 
WAVCIS,ioos:station:WAVCIS:CSI15:1,2012-01-06T07:00:00Z,28.8332,-90.8320,19.32,11111222 
WAVCIS,ioos:station:WAVCIS:CSI15:1,2012-01-06T08:00:00Z,28.8332,-90.8320,19.59,11111222 
WAVCIS,ioos:station:WAVCIS:CSI15:1,2012-01-06T09:00:00Z,28.8332,-90.8320,19.16,11111222 
WAVCIS,ioos:station:WAVCIS:CSI15:1,2012-01-06T10:00:00Z,28.8332,-90.8320,18.8,11111222 
WAVCIS,ioos:station:WAVCIS:CSI15:1,2012-01-06T11:00:00Z,28.8332,-90.8320,18.81,11111222 
WAVCIS,ioos:station:WAVCIS:CSI15:1,2012-01-06T12:00:00Z,28.8332,-90.8320,18.89,11111222 
WAVCIS,ioos:station:WAVCIS:CSI15:1,2012-01-06T13:00:00Z,28.8332,-90.8320,19.02,11111222 
WAVCIS,ioos:station:WAVCIS:CSI15:1,2012-01-06T14:00:00Z,28.8332,-90.8320,19.32,11111222 
WAVCIS,ioos:station:WAVCIS:CSI15:1,2012-01-06T15:00:00Z,28.8332,-90.8320,19.33,11111222 
WAVCIS,ioos:station:WAVCIS:CSI15:1,2012-01-06T16:00:00Z,28.8332,-90.8320,19.5,11111222 
WAVCIS,ioos:station:WAVCIS:CSI15:1,2012-01-06T17:00:00Z,28.8332,-90.8320,19.41,11111222 
WAVCIS,ioos:station:WAVCIS:CSI15:1,2012-01-06T18:00:00Z,28.8332,-90.8320,19.49,11111222 
WAVCIS,ioos:station:WAVCIS:CSI15:1,2012-01-06T19:00:00Z,28.8332,-90.8320,19.7,11111222 
WAVCIS,ioos:station:WAVCIS:CSI15:1,2012-01-06T20:00:00Z,28.8332,-90.8320,19.63,11111222 
WAVCIS,ioos:station:WAVCIS:CSI15:1,2012-01-06T21:00:00Z,28.8332,-90.8320,19.71,11111222 
WAVCIS,ioos:station:WAVCIS:CSI15:1,2012-01-06T22:00:00Z,28.8332,-90.8320,19.84,11111222 
WAVCIS,ioos:station:WAVCIS:CSI15:1,2012-01-06T23:00:00Z,28.8332,-90.8320,19.7,11111222 
WAVCIS,ioos:station:WAVCIS:CSI15:1,2012-01-07T00:00:00Z,28.8332,-90.8320,19.58,11111222 
WAVCIS,ioos:station:WAVCIS:CSI15:1,2012-01-07T01:00:00Z,28.8332,-90.8320,19.52,11111222 
WAVCIS,ioos:station:WAVCIS:CSI15:1,2012-01-07T02:00:00Z,28.8332,-90.8320,19.72,11111222 
WAVCIS,ioos:station:WAVCIS:CSI15:1,2012-01-07T03:00:00Z,28.8332,-90.8320,19.6,11111222 
WAVCIS,ioos:station:WAVCIS:CSI15:1,2012-01-07T04:00:00Z,28.8332,-90.8320,19.76,11111222 
WAVCIS,ioos:station:WAVCIS:CSI15:1,2012-01-07T05:00:00Z,28.8332,-90.8320,19.54,11111222 
WAVCIS,ioos:station:WAVCIS:CSI15:1,2012-01-07T06:00:00Z,28.8332,-90.8320,19.78,11111222 
WAVCIS,ioos:station:WAVCIS:CSI15:1,2012-01-07T07:00:00Z,28.8332,-90.8320,19.89,11111222 
WAVCIS,ioos:station:WAVCIS:CSI15:1,2012-01-07T08:00:00Z,28.8332,-90.8320,19.82,11111222 
WAVCIS,ioos:station:WAVCIS:CSI15:1,2012-01-07T09:00:00Z,28.8332,-90.8320,20.01,11111222 
WAVCIS,ioos:station:WAVCIS:CSI15:1,2012-01-07T10:00:00Z,28.8332,-90.8320,20.01,11111222 
WAVCIS,ioos:station:WAVCIS:CSI15:1,2012-01-07T11:00:00Z,28.8332,-90.8320,18.4,11111222 
WAVCIS,ioos:station:WAVCIS:CSI15:1,2012-01-07T12:00:00Z,28.8332,-90.8320,17.93,11111222 
WAVCIS,ioos:station:WAVCIS:CSI15:1,2012-01-07T13:00:00Z,28.8332,-90.8320,18.34,11111222 
WAVCIS,ioos:station:WAVCIS:CSI15:1,2012-01-07T14:00:00Z,28.8332,-90.8320,18.92,11111222 
WAVCIS,ioos:station:WAVCIS:CSI15:1,2012-01-07T15:00:00Z,28.8332,-90.8320,18.01,11111222 
WAVCIS,ioos:station:WAVCIS:CSI15:1,2012-01-07T16:00:00Z,28.8332,-90.8320,20.41,11111222 
WAVCIS,ioos:station:WAVCIS:CSI15:1,2012-01-07T17:00:00Z,28.8332,-90.8320,20.62,11111222 
WAVCIS,ioos:station:WAVCIS:CSI15:1,2012-01-07T18:00:00Z,28.8332,-90.8320,19.86,11111222 
WAVCIS,ioos:station:WAVCIS:CSI15:1,2012-01-07T19:00:00Z,28.8332,-90.8320,21.7,11111222 
WAVCIS,ioos:station:WAVCIS:CSI15:1,2012-01-07T20:00:00Z,28.8332,-90.8320,21.83,11111222 
WAVCIS,ioos:station:WAVCIS:CSI15:1,2012-01-07T21:00:00Z,28.8332,-90.8320,21.59,11111222 
WAVCIS,ioos:station:WAVCIS:CSI15:1,2012-01-07T22:00:00Z,28.8332,-90.8320,20.69,11111222 
WAVCIS,ioos:station:WAVCIS:CSI15:1,2012-01-07T23:00:00Z,28.8332,-90.8320,20.29,11111222 
WAVCIS,ioos:station:WAVCIS:CSI15:1,2012-01-08T00:00:00Z,28.8332,-90.8320,20.48,11111222 
WAVCIS,ioos:station:WAVCIS:CSI15:1,2012-01-08T01:00:00Z,28.8332,-90.8320,20.27,11111222 
WAVCIS,ioos:station:WAVCIS:CSI15:1,2012-01-08T02:00:00Z,28.8332,-90.8320,21.17,11111222 
WAVCIS,ioos:station:WAVCIS:CSI15:1,2012-01-08T03:00:00Z,28.8332,-90.8320,20.2,11111222 
WAVCIS,ioos:station:WAVCIS:CSI15:1,2012-01-08T04:00:00Z,28.8332,-90.8320,20.16,11111222 
WAVCIS,ioos:station:WAVCIS:CSI15:1,2012-01-08T05:00:00Z,28.8332,-90.8320,20.34,11111222 
WAVCIS,ioos:station:WAVCIS:CSI15:1,2012-01-08T06:00:00Z,28.8332,-90.8320,20.44,11111222 
WAVCIS,ioos:station:WAVCIS:CSI15:1,2012-01-08T07:00:00Z,28.8332,-90.8320,20.28,11111222 
WAVCIS,ioos:station:WAVCIS:CSI15:1,2012-01-08T08:00:00Z,28.8332,-90.8320,20.37,11111222 
WAVCIS,ioos:station:WAVCIS:CSI15:1,2012-01-08T09:00:00Z,28.8332,-90.8320,20.52,11111222 
WAVCIS,ioos:station:WAVCIS:CSI15:1,2012-01-08T10:00:00Z,28.8332,-90.8320,20.36,11111222 
WAVCIS,ioos:station:WAVCIS:CSI15:1,2012-01-08T11:00:00Z,28.8332,-90.8320,20.21,11111222 
WAVCIS,ioos:station:WAVCIS:CSI15:1,2012-01-08T12:00:00Z,28.8332,-90.8320,20.8,11111222 
WAVCIS,ioos:station:WAVCIS:CSI15:1,2012-01-08T13:00:00Z,28.8332,-90.8320,20.67,11111222 
WAVCIS,ioos:station:WAVCIS:CSI15:1,2012-01-08T14:00:00Z,28.8332,-90.8320,21.2,11111222 
WAVCIS,ioos:station:WAVCIS:CSI15:1,2012-01-08T15:00:00Z,28.8332,-90.8320,21.58,11111222 
WAVCIS,ioos:station:WAVCIS:CSI15:1,2012-01-08T16:00:00Z,28.8332,-90.8320,21.2,11111222 
WAVCIS,ioos:station:WAVCIS:CSI15:1,2012-01-08T17:00:00Z,28.8332,-90.8320,21.22,11111222 
WAVCIS,ioos:station:WAVCIS:CSI15:1,2012-01-08T18:00:00Z,28.8332,-90.8320,20.96,11111222 
WAVCIS,ioos:station:WAVCIS:CSI15:1,2012-01-08T19:00:00Z,28.8332,-90.8320,21.24,11111222 
WAVCIS,ioos:station:WAVCIS:CSI15:1,2012-01-08T20:00:00Z,28.8332,-90.8320,21.48,11111222 
WAVCIS,ioos:station:WAVCIS:CSI15:1,2012-01-08T21:00:00Z,28.8332,-90.8320,25.08,11111222 
WAVCIS,ioos:station:WAVCIS:CSI15:1,2012-01-08T22:00:00Z,28.8332,-90.8320,24.93,11111222 
WAVCIS,ioos:station:WAVCIS:CSI15:1,2012-01-08T23:00:00Z,28.8332,-90.8320,21.59,11111222 
WAVCIS,ioos:station:WAVCIS:CSI15:1,2012-01-09T00:00:00Z,28.8332,-90.8320,21.04,11111222 
WAVCIS,ioos:station:WAVCIS:CSI15:1,2012-01-09T01:00:00Z,28.8332,-90.8320,21.78,11111222 
WAVCIS,ioos:station:WAVCIS:CSI15:1,2012-01-09T02:00:00Z,28.8332,-90.8320,21.0,11111222 
WAVCIS,ioos:station:WAVCIS:CSI15:1,2012-01-09T03:00:00Z,28.8332,-90.8320,21.23,11111222 
WAVCIS,ioos:station:WAVCIS:CSI15:1,2012-01-09T04:00:00Z,28.8332,-90.8320,21.32,11111222 
WAVCIS,ioos:station:WAVCIS:CSI15:1,2012-01-09T05:00:00Z,28.8332,-90.8320,21.01,11111222 
WAVCIS,ioos:station:WAVCIS:CSI15:1,2012-01-09T06:00:00Z,28.8332,-90.8320,20.74,11111222 
WAVCIS,ioos:station:WAVCIS:CSI15:1,2012-01-09T07:00:00Z,28.8332,-90.8320,20.74,11111222 
WAVCIS,ioos:station:WAVCIS:CSI15:1,2012-01-09T08:00:00Z,28.8332,-90.8320,20.64,11111222 
WAVCIS,ioos:station:WAVCIS:CSI15:1,2012-01-09T09:00:00Z,28.8332,-90.8320,20.91,11111222 
WAVCIS,ioos:station:WAVCIS:CSI15:1,2012-01-09T10:00:00Z,28.8332,-90.8320,21.61,11111222 
WAVCIS,ioos:station:WAVCIS:CSI15:1,2012-01-09T11:00:00Z,28.8332,-90.8320,20.44,11111222 
WAVCIS,ioos:station:WAVCIS:CSI15:1,2012-01-09T12:00:00Z,28.8332,-90.8320,20.51,11111222 
WAVCIS,ioos:station:WAVCIS:CSI15:1,2012-01-09T13:00:00Z,28.8332,-90.8320,23.3,11111222 
WAVCIS,ioos:station:WAVCIS:CSI15:1,2012-01-09T14:00:00Z,28.8332,-90.8320,21.17,11111222 
WAVCIS,ioos:station:WAVCIS:CSI15:1,2012-01-09T15:00:00Z,28.8332,-90.8320,20.45,11111222 
WAVCIS,ioos:station:WAVCIS:CSI15:1,2012-01-09T16:00:00Z,28.8332,-90.8320,21.37,11111222 
WAVCIS,ioos:station:WAVCIS:CSI15:1,2012-01-09T17:00:00Z,28.8332,-90.8320,21.08,11111222 
WAVCIS,ioos:station:WAVCIS:CSI15:1,2012-01-09T18:00:00Z,28.8332,-90.8320,21.34,11111222 
WAVCIS,ioos:station:WAVCIS:CSI15:1,2012-01-09T19:00:00Z,28.8332,-90.8320,20.93,11111222 
WAVCIS,ioos:station:WAVCIS:CSI15:1,2012-01-09T20:00:00Z,28.8332,-90.8320,23.04,11111222 
WAVCIS,ioos:station:WAVCIS:CSI15:1,2012-01-09T21:00:00Z,28.8332,-90.8320,23.97,11111222 
WAVCIS,ioos:station:WAVCIS:CSI15:1,2012-01-09T22:00:00Z,28.8332,-90.8320,23.88,11111222 
WAVCIS,ioos:station:WAVCIS:CSI15:1,2012-01-09T23:00:00Z,28.8332,-90.8320,23.68,11111222 
WAVCIS,ioos:station:WAVCIS:CSI15:1,2012-01-10T00:00:00Z,28.8332,-90.8320,21.83,11111222 
WAVCIS,ioos:station:WAVCIS:CSI15:1,2012-01-10T01:00:00Z,28.8332,-90.8320,21.25,11111222 
WAVCIS,ioos:station:WAVCIS:CSI15:1,2012-01-10T02:00:00Z,28.8332,-90.8320,20.87,11111222 
WAVCIS,ioos:station:WAVCIS:CSI15:1,2012-01-10T03:00:00Z,28.8332,-90.8320,20.7,11111222 
WAVCIS,ioos:station:WAVCIS:CSI15:1,2012-01-10T04:00:00Z,28.8332,-90.8320,21.05,11111222 
WAVCIS,ioos:station:WAVCIS:CSI15:1,2012-01-10T05:00:00Z,28.8332,-90.8320,21.2,11111222 
WAVCIS,ioos:station:WAVCIS:CSI15:1,2012-01-10T06:00:00Z,28.8332,-90.8320,20.82,11111222 
WAVCIS,ioos:station:WAVCIS:CSI15:1,2012-01-10T07:00:00Z,28.8332,-90.8320,21.06,11111222 
WAVCIS,ioos:station:WAVCIS:CSI15:1,2012-01-10T08:00:00Z,28.8332,-90.8320,20.98,11111222 
WAVCIS,ioos:station:WAVCIS:CSI15:1,2012-01-10T09:00:00Z,28.8332,-90.8320,21.18,11111222 
WAVCIS,ioos:station:WAVCIS:CSI15:1,2012-01-10T10:00:00Z,28.8332,-90.8320,21.41,11111222 
WAVCIS,ioos:station:WAVCIS:CSI15:1,2012-01-10T11:00:00Z,28.8332,-90.8320,21.55,11111222 
WAVCIS,ioos:station:WAVCIS:CSI15:1,2012-01-10T12:00:00Z,28.8332,-90.8320,21.15,11111222 
WAVCIS,ioos:station:WAVCIS:CSI15:1,2012-01-10T13:00:00Z,28.8332,-90.8320,21.12,11111222 
WAVCIS,ioos:station:WAVCIS:CSI15:1,2012-01-10T14:00:00Z,28.8332,-90.8320,20.17,11111222 
WAVCIS,ioos:station:WAVCIS:CSI15:1,2012-01-10T15:00:00Z,28.8332,-90.8320,19.16,11111222 
WAVCIS,ioos:station:WAVCIS:CSI15:1,2012-01-10T16:00:00Z,28.8332,-90.8320,19.88,11111222 
WAVCIS,ioos:station:WAVCIS:CSI15:1,2012-01-10T17:00:00Z,28.8332,-90.8320,19.82,11111222 
WAVCIS,ioos:station:WAVCIS:CSI15:1,2012-01-10T18:00:00Z,28.8332,-90.8320,19.74,11111222 
WAVCIS,ioos:station:WAVCIS:CSI15:1,2012-01-10T19:00:00Z,28.8332,-90.8320,19.94,11111222 
WAVCIS,ioos:station:WAVCIS:CSI15:1,2012-01-10T20:00:00Z,28.8332,-90.8320,16.67,11111222 
WAVCIS,ioos:station:WAVCIS:CSI15:1,2012-01-10T21:00:00Z,28.8332,-90.8320,16.42,11111222 
WAVCIS,ioos:station:WAVCIS:CSI15:1,2012-01-10T22:00:00Z,28.8332,-90.8320,15.95,11111222 
WAVCIS,ioos:station:WAVCIS:CSI15:1,2012-01-10T23:00:00Z,28.8332,-90.8320,15.58,11111222 
WAVCIS,ioos:station:WAVCIS:CSI15:1,2012-01-11T00:00:00Z,28.8332,-90.8320,15.23,11111222 
WAVCIS,ioos:station:WAVCIS:CSI15:1,2012-01-11T01:00:00Z,28.8332,-90.8320,14.97,11111222 
WAVCIS,ioos:station:WAVCIS:CSI15:1,2012-01-11T02:00:00Z,28.8332,-90.8320,14.67,11111222 
WAVCIS,ioos:station:WAVCIS:CSI15:1,2012-01-11T03:00:00Z,28.8332,-90.8320,14.86,11111222 
WAVCIS,ioos:station:WAVCIS:CSI15:1,2012-01-11T04:00:00Z,28.8332,-90.8320,14.69,11111222 
WAVCIS,ioos:station:WAVCIS:CSI15:1,2012-01-11T05:00:00Z,28.8332,-90.8320,14.73,11111222 
WAVCIS,ioos:station:WAVCIS:CSI15:1,2012-01-11T06:00:00Z,28.8332,-90.8320,14.99,11111222 
WAVCIS,ioos:station:WAVCIS:CSI15:1,2012-01-11T07:00:00Z,28.8332,-90.8320,14.1,11111222 
WAVCIS,ioos:station:WAVCIS:CSI15:1,2012-01-11T08:00:00Z,28.8332,-90.8320,14.37,11111222 
WAVCIS,ioos:station:WAVCIS:CSI15:1,2012-01-11T09:00:00Z,28.8332,-90.8320,15.33,11111222 
WAVCIS,ioos:station:WAVCIS:CSI15:1,2012-01-11T10:00:00Z,28.8332,-90.8320,16.15,11111222 
WAVCIS,ioos:station:WAVCIS:CSI15:1,2012-01-11T11:00:00Z,28.8332,-90.8320,16.36,11111222 
WAVCIS,ioos:station:WAVCIS:CSI15:1,2012-01-11T12:00:00Z,28.8332,-90.8320,15.96,11111222 
WAVCIS,ioos:station:WAVCIS:CSI15:1,2012-01-11T13:00:00Z,28.8332,-90.8320,15.97,11111222 
WAVCIS,ioos:station:WAVCIS:CSI15:1,2012-01-11T14:00:00Z,28.8332,-90.8320,16.33,11111222 
WAVCIS,ioos:station:WAVCIS:CSI15:1,2012-01-11T15:00:00Z,28.8332,-90.8320,16.4,11111222 
WAVCIS,ioos:station:WAVCIS:CSI15:1,2012-01-11T16:00:00Z,28.8332,-90.8320,16.17,11111222 
WAVCIS,ioos:station:WAVCIS:CSI15:1,2012-01-11T17:00:00Z,28.8332,-90.8320,16.03,11111222 
WAVCIS,ioos:station:WAVCIS:CSI15:1,2012-01-11T18:00:00Z,28.8332,-90.8320,16.62,11111222 
WAVCIS,ioos:station:WAVCIS:CSI15:1,2012-01-11T19:00:00Z,28.8332,-90.8320,16.88,11111222 
WAVCIS,ioos:station:WAVCIS:CSI15:1,2012-01-11T20:00:00Z,28.8332,-90.8320,17.22,11111222 
WAVCIS,ioos:station:WAVCIS:CSI15:1,2012-01-11T21:00:00Z,28.8332,-90.8320,17.35,11111222 
WAVCIS,ioos:station:WAVCIS:CSI15:1,2012-01-11T22:00:00Z,28.8332,-90.8320,17.47,11111222 
WAVCIS,ioos:station:WAVCIS:CSI15:1,2012-01-11T23:00:00Z,28.8332,-90.8320,17.55,11111222 
WAVCIS,ioos:station:WAVCIS:CSI15:1,2012-01-12T00:00:00Z,28.8332,-90.8320,17.4,11111222 
WAVCIS,ioos:station:WAVCIS:CSI15:1,2012-01-12T01:00:00Z,28.8332,-90.8320,17.7,11111222 
WAVCIS,ioos:station:WAVCIS:CSI15:1,2012-01-12T02:00:00Z,28.8332,-90.8320,17.86,11111222 
WAVCIS,ioos:station:WAVCIS:CSI15:1,2012-01-12T03:00:00Z,28.8332,-90.8320,17.81,11111222 
WAVCIS,ioos:station:WAVCIS:CSI15:1,2012-01-12T04:00:00Z,28.8332,-90.8320,17.9,11111222 